Hourly Data Report for September 09, 2017

All times are specified in Local Standard Time (LST). Add 1 hour to adjust for Daylight Saving Time where and when it is observed.

FREDERICTON
NEW BRUNSWICK

45°52'08.000" N
66°32'14.000" W
20.70 m
8101505
71700
YFC

Related Data

No related data is available for this station

Download Data

Hourly Data (September 2017)
Hourly Data Report for September 9, 2017
Temp Definition
°C
Dew Point Temp Definition
°C
Rel Hum Definition
%
Wind Dir Definition
10's deg

Wind Spd Definition
km/h
Visibility Definition
km
Stn Press Definition
kPa
Hmdx Definition


Wind Chill Definition


Weather Definition


TIME
00:00 Legend Double Dagger 12.5 11.7 95   0 16.1 101.61     LegendNANA
01:00 Legend Double Dagger 11.5 11.0 97   0 16.1 101.62     LegendNANA
02:00 Legend Double Dagger 10.3 10.0 98 19 5 8.1 101.61     Fog
03:00 Legend Double Dagger 10.0 9.7 98 22 5 12.9 101.63     LegendNANA
04:00 Legend Double Dagger 10.0 9.7 98 19 8 16.1 101.67     LegendNANA
05:00 Legend Double Dagger 9.9 9.3 96 17 5 16.1 101.72     LegendNANA
06:00 Legend Double Dagger 9.8 9.4 97 LegendMM 4 16.1 101.79     LegendNANA
07:00 Legend Double Dagger 10.4 9.8 96   0 16.1 101.84     LegendNANA
08:00 Legend Double Dagger 11.1 10.7 97 20 8 16.1 101.89     LegendNANA
09:00 Legend Double Dagger 11.8 11.3 97   0 14.5 101.96     Rain
10:00 Legend Double Dagger 13.8 12.5 92   0 16.1 101.97     LegendNANA
11:00 Legend Double Dagger 15.6 13.3 86   0 16.1 101.97     LegendNANA
12:00 Legend Double Dagger 16.9 13.6 81   0 16.1 101.96     LegendNANA
13:00 Legend Double Dagger 19.7 13.0 65 2 13 16.1 101.92     LegendNANA
14:00 Legend Double Dagger 19.5 13.1 66 5 18 16.1 101.88     LegendNANA
15:00 Legend Double Dagger 17.8 13.9 78 4 9 16.1 101.89     Rain
16:00 Legend Double Dagger 19.1 13.7 71 35 9 16.1 101.90     LegendNANA
17:00 Legend Double Dagger 17.8 14.4 80 29 8 16.1 101.92     LegendNANA
18:00 Legend Double Dagger 16.0 14.4 90 34 9 16.1 101.95     LegendNANA
19:00 Legend Double Dagger 14.8 13.3 91 32 8 16.1 101.99     LegendNANA
20:00 Legend Double Dagger 14.8 12.3 85 1 13 16.1 102.05     LegendNANA
21:00 Legend Double Dagger 13.9 12.0 88 36 9 16.1 102.09     LegendNANA
22:00 Legend Double Dagger 12.4 11.0 91 2 5 16.1 102.15     LegendNANA
23:00 Legend Double Dagger 11.8 11.0 95 2 8 16.1 102.16     LegendNANA

Notes on Data Quality.

Legend

  • E = Estimated
  • M = Missing
  • NA = Not Available
  • ‡ = Partner data that is not subject to review by the National Climate Archives
Date modified: